Time,TemperatureF,DewpointF,PressureIn,WindDirection,WindDirectionDegrees,WindSpeedMPH,WindSpeedGustMPH,Humidity,HourlyPrecipIn,Conditions,Clouds,dailyrainin,SolarRadiationWatts/m^2,SoftwareType,DateUTC
2013-05-09 00:02:00,59.8,58.1,29.91,WNW,290,0.0,0.0,94,0.00,,,0.00,0.00,VWS V14.01,2013-05-09 04:02:00,
2013-05-09 00:07:00,59.6,57.9,29.91,WNW,290,0.0,0.0,94,0.00,,,0.00,0.00,VWS V14.01,2013-05-09 04:07:00,
2013-05-09 00:12:00,59.5,57.8,29.91,WNW,290,0.0,0.0,94,0.00,,,0.00,0.00,VWS V14.01,2013-05-09 04:12:00,
2013-05-09 00:17:00,59.3,57.6,29.91,WNW,290,0.0,0.0,94,0.00,,,0.00,0.00,VWS V14.01,2013-05-09 04:17:00,
2013-05-09 00:22:00,59.2,57.5,29.91,WNW,290,0.0,0.0,94,0.00,,,0.00,0.00,VWS V14.01,2013-05-09 04:22:00,
2013-05-09 00:27:00,58.9,57.2,29.91,WNW,290,0.0,0.0,94,0.00,,,0.00,0.00,VWS V14.01,2013-05-09 04:27:00,
2013-05-09 00:32:00,58.6,56.9,29.91,WNW,290,0.0,0.0,94,0.00,,,0.00,0.00,VWS V14.01,2013-05-09 04:32:00,
2013-05-09 00:37:00,58.4,56.7,29.91,WNW,290,0.0,0.0,94,0.00,,,0.00,0.00,VWS V14.01,2013-05-09 04:37:00,
2013-05-09 00:42:00,58.3,56.6,29.91,WNW,290,0.0,0.0,94,0.00,,,0.00,0.00,VWS V14.01,2013-05-09 04:42:00,
2013-05-09 00:47:00,58.0,56.3,29.91,WNW,290,0.0,0.0,94,0.00,,,0.00,0.00,VWS V14.01,2013-05-09 04:47:00,
2013-05-09 00:52:00,58.0,56.3,29.91,WNW,290,0.0,0.0,94,0.00,,,0.00,0.00,VWS V14.01,2013-05-09 04:52:00,
2013-05-09 00:57:00,58.0,56.3,29.91,WNW,290,0.0,0.0,94,0.00,,,0.00,0.00,VWS V14.01,2013-05-09 04:57:00,
2013-05-09 01:02:00,57.8,56.1,29.91,WNW,290,0.0,0.0,94,0.00,,,0.00,0.00,VWS V14.01,2013-05-09 05:02:00,
2013-05-09 01:07:00,57.6,55.9,29.91,WNW,290,0.0,0.0,94,0.00,,,0.00,0.00,VWS V14.01,2013-05-09 05:07:00,
2013-05-09 01:12:00,57.5,55.8,29.91,WNW,290,0.0,0.0,94,0.00,,,0.00,0.00,VWS V14.01,2013-05-09 05:12:00,
2013-05-09 01:17:00,57.3,55.6,29.91,WNW,290,0.0,0.0,94,0.00,,,0.00,0.00,VWS V14.01,2013-05-09 05:17:00,
2013-05-09 01:22:00,57.2,55.5,29.91,WNW,290,0.0,0.0,94,0.00,,,0.00,0.00,VWS V14.01,2013-05-09 05:22:00,
2013-05-09 01:27:00,57.0,55.3,29.91,WNW,290,0.0,0.0,94,0.00,,,0.00,0.00,VWS V14.01,2013-05-09 05:27:00,
2013-05-09 01:32:00,56.9,55.2,29.90,WNW,290,0.0,0.0,94,0.00,,,0.00,0.00,VWS V14.01,2013-05-09 05:32:00,
2013-05-09 01:37:00,56.9,55.2,29.90,WNW,290,0.0,0.0,94,0.00,,,0.00,0.00,VWS V14.01,2013-05-09 05:37:00,
2013-05-09 01:42:00,56.9,55.2,29.90,WNW,290,0.0,0.0,94,0.00,,,0.00,0.00,VWS V14.01,2013-05-09 05:42:00,
2013-05-09 01:47:00,57.2,55.8,29.90,WNW,290,0.0,0.0,95,0.00,,,0.00,0.00,VWS V14.01,2013-05-09 05:47:00,
2013-05-09 01:52:00,57.2,55.8,29.90,WNW,290,0.0,0.0,95,0.00,,,0.00,0.00,VWS V14.01,2013-05-09 05:52:00,
2013-05-09 01:57:00,57.3,55.9,29.90,WNW,290,0.0,0.0,95,0.00,,,0.00,0.00,VWS V14.01,2013-05-09 05:57:00,
2013-05-09 02:02:00,57.5,56.1,29.90,WNW,290,0.0,0.0,95,0.00,,,0.00,0.00,VWS V14.01,2013-05-09 06:02:00,
2013-05-09 02:07:00,57.6,56.2,29.90,WNW,290,0.0,0.0,95,0.00,,,0.00,0.00,VWS V14.01,2013-05-09 06:07:00,
2013-05-09 02:12:00,57.6,56.2,29.90,WNW,290,0.0,0.0,95,0.00,,,0.00,0.00,VWS V14.01,2013-05-09 06:12:00,
2013-05-09 02:17:00,57.6,56.2,29.90,WNW,290,0.0,0.0,95,0.00,,,0.00,0.00,VWS V14.01,2013-05-09 06:17:00,
2013-05-09 02:22:00,57.5,56.1,29.90,WNW,290,0.0,0.0,95,0.00,,,0.00,0.00,VWS V14.01,2013-05-09 06:22:00,
2013-05-09 02:27:00,57.5,56.1,29.90,WNW,290,0.0,0.0,95,0.00,,,0.00,0.00,VWS V14.01,2013-05-09 06:27:00,
2013-05-09 02:32:00,57.5,56.1,29.90,WNW,290,0.0,0.0,95,0.00,,,0.00,0.00,VWS V14.01,2013-05-09 06:32:00,
2013-05-09 02:37:00,57.5,56.1,29.90,WNW,290,0.0,0.0,95,0.00,,,0.00,0.00,VWS V14.01,2013-05-09 06:37:00,
2013-05-09 02:42:00,57.6,56.2,29.90,WNW,290,0.0,0.0,95,0.00,,,0.00,0.00,VWS V14.01,2013-05-09 06:42:00,
2013-05-09 02:47:00,57.8,56.4,29.89,WNW,290,0.0,0.0,95,0.00,,,0.00,0.00,VWS V14.01,2013-05-09 06:47:00,
2013-05-09 02:52:00,57.8,56.4,29.89,WNW,290,0.0,0.0,95,0.00,,,0.00,0.00,VWS V14.01,2013-05-09 06:52:00,
2013-05-09 02:57:00,57.8,56.4,29.89,WNW,290,0.0,0.0,95,0.00,,,0.00,0.00,VWS V14.01,2013-05-09 06:57:00,
2013-05-09 03:02:00,57.8,56.4,29.89,WNW,290,0.0,0.0,95,0.00,,,0.00,0.00,VWS V14.01,2013-05-09 07:02:00,
2013-05-09 03:07:00,57.8,56.7,29.89,WNW,290,0.0,0.0,96,0.00,,,0.00,0.00,VWS V14.01,2013-05-09 07:07:00,
2013-05-09 03:12:00,57.8,56.7,29.89,WNW,290,0.0,0.0,96,0.00,,,0.00,0.00,VWS V14.01,2013-05-09 07:12:00,
2013-05-09 03:17:00,57.8,56.7,29.89,WNW,290,0.0,0.0,96,0.00,,,0.00,0.00,VWS V14.01,2013-05-09 07:17:00,
2013-05-09 03:22:00,57.8,56.7,29.89,WNW,290,0.0,0.0,96,0.00,,,0.00,0.00,VWS V14.01,2013-05-09 07:22:00,
2013-05-09 03:27:00,57.8,56.7,29.89,WNW,290,0.0,0.0,96,0.01,,,0.01,0.00,VWS V14.01,2013-05-09 07:27:00,
2013-05-09 03:32:00,57.8,56.7,29.89,WNW,290,0.0,0.0,96,0.01,,,0.01,0.00,VWS V14.01,2013-05-09 07:32:00,
2013-05-09 03:37:00,58.0,56.9,29.89,WNW,290,1.0,1.0,96,0.01,,,0.01,0.00,VWS V14.01,2013-05-09 07:37:00,
2013-05-09 03:42:00,57.8,56.7,29.89,WNW,290,0.0,0.0,96,0.01,,,0.01,0.00,VWS V14.01,2013-05-09 07:42:00,
2013-05-09 03:47:00,57.6,56.5,29.89,WNW,290,0.0,0.0,96,0.01,,,0.01,0.00,VWS V14.01,2013-05-09 07:47:00,
2013-05-09 03:52:00,57.6,56.5,29.89,WNW,290,0.0,0.0,96,0.01,,,0.01,0.00,VWS V14.01,2013-05-09 07:52:00,
2013-05-09 03:57:00,57.6,56.5,29.89,WNW,290,0.0,0.0,96,0.01,,,0.01,0.00,VWS V14.01,2013-05-09 07:57:00,
2013-05-09 04:02:00,57.5,56.4,29.90,WNW,290,0.0,0.0,96,0.01,,,0.01,0.00,VWS V14.01,2013-05-09 08:02:00,
2013-05-09 04:07:00,57.5,56.4,29.90,WNW,290,0.0,0.0,96,0.01,,,0.01,0.00,VWS V14.01,2013-05-09 08:07:00,
2013-05-09 04:12:00,57.5,56.4,29.90,WNW,290,0.0,0.0,96,0.01,,,0.01,0.00,VWS V14.01,2013-05-09 08:12:00,
2013-05-09 04:17:00,57.5,56.4,29.90,WNW,290,0.0,0.0,96,0.01,,,0.01,0.00,VWS V14.01,2013-05-09 08:17:00,
2013-05-09 04:22:00,57.5,56.4,29.90,WNW,290,0.0,0.0,96,0.01,,,0.01,0.00,VWS V14.01,2013-05-09 08:22:00,
2013-05-09 04:27:00,57.5,56.4,29.90,WNW,290,0.0,0.0,96,0.00,,,0.01,0.00,VWS V14.01,2013-05-09 08:27:00,
2013-05-09 04:32:00,57.5,56.4,29.90,WNW,290,0.0,0.0,96,0.00,,,0.01,0.00,VWS V14.01,2013-05-09 08:32:00,
2013-05-09 04:37:00,57.3,56.2,29.90,WNW,290,0.0,0.0,96,0.00,,,0.01,0.00,VWS V14.01,2013-05-09 08:37:00,
2013-05-09 04:42:00,57.3,56.2,29.90,WNW,290,0.0,0.0,96,0.00,,,0.01,0.00,VWS V14.01,2013-05-09 08:42:00,
2013-05-09 04:47:00,57.2,56.1,29.90,WNW,290,0.0,0.0,96,0.00,,,0.01,0.00,VWS V14.01,2013-05-09 08:47:00,
2013-05-09 04:52:00,57.2,56.1,29.90,WNW,290,0.0,1.0,96,0.00,,,0.01,0.00,VWS V14.01,2013-05-09 08:52:00,
2013-05-09 04:57:00,57.2,56.1,29.90,WNW,290,0.0,1.0,96,0.00,,,0.01,0.00,VWS V14.01,2013-05-09 08:57:00,
2013-05-09 05:02:00,57.0,55.9,29.90,WNW,290,0.0,0.0,96,0.00,,,0.01,0.00,VWS V14.01,2013-05-09 09:02:00,
2013-05-09 05:07:00,57.0,55.9,29.90,WNW,290,0.0,0.0,96,0.00,,,0.01,0.00,VWS V14.01,2013-05-09 09:07:00,
2013-05-09 05:12:00,57.0,55.9,29.90,WNW,290,0.0,0.0,96,0.00,,,0.01,0.00,VWS V14.01,2013-05-09 09:12:00,
2013-05-09 05:17:00,56.9,55.8,29.90,WNW,290,0.0,0.0,96,0.00,,,0.01,0.00,VWS V14.01,2013-05-09 09:17:00,
2013-05-09 05:22:00,56.9,55.8,29.90,WNW,290,0.0,1.0,96,0.00,,,0.01,0.00,VWS V14.01,2013-05-09 09:22:00,
2013-05-09 05:27:00,56.9,55.8,29.90,WNW,290,0.0,0.0,96,0.00,,,0.01,0.00,VWS V14.01,2013-05-09 09:27:00,
2013-05-09 05:32:00,56.9,55.8,29.91,WNW,290,0.0,0.0,96,0.00,,,0.01,0.00,VWS V14.01,2013-05-09 09:32:00,
2013-05-09 05:37:00,56.9,55.8,29.91,WNW,290,0.0,0.0,96,0.00,,,0.01,0.00,VWS V14.01,2013-05-09 09:37:00,
2013-05-09 05:42:00,56.9,55.8,29.91,WNW,290,0.0,0.0,96,0.00,,,0.01,0.00,VWS V14.01,2013-05-09 09:42:00,
2013-05-09 05:47:00,56.9,55.8,29.90,WNW,290,0.0,0.0,96,0.00,,,0.01,0.00,VWS V14.01,2013-05-09 09:47:00,
2013-05-09 05:52:00,56.9,55.8,29.90,WNW,290,0.0,0.0,96,0.00,,,0.01,0.00,VWS V14.01,2013-05-09 09:52:00,
2013-05-09 05:57:00,56.9,55.8,29.90,WNW,290,0.0,0.0,96,0.00,,,0.01,0.00,VWS V14.01,2013-05-09 09:57:00,
2013-05-09 06:02:00,56.9,55.8,29.91,WNW,290,0.0,0.0,96,0.00,,,0.01,0.00,VWS V14.01,2013-05-09 10:02:00,
2013-05-09 06:07:00,56.9,55.8,29.91,WNW,290,0.0,0.0,96,0.00,,,0.01,0.00,VWS V14.01,2013-05-09 10:07:00,
2013-05-09 06:12:00,56.9,55.8,29.91,WNW,290,0.0,0.0,96,0.00,,,0.01,0.00,VWS V14.01,2013-05-09 10:12:00,
2013-05-09 06:17:00,56.9,55.8,29.91,WNW,290,0.0,0.0,96,0.00,,,0.01,0.00,VWS V14.01,2013-05-09 10:17:00,
2013-05-09 06:22:00,56.7,55.6,29.91,WNW,290,0.0,0.0,96,0.00,,,0.01,7.00,VWS V14.01,2013-05-09 10:22:00,
2013-05-09 06:27:00,56.6,55.5,29.91,WNW,290,0.0,0.0,96,0.00,,,0.01,9.00,VWS V14.01,2013-05-09 10:27:00,
2013-05-09 06:32:00,56.5,55.4,29.91,WNW,290,0.0,0.0,96,0.00,,,0.01,11.00,VWS V14.01,2013-05-09 10:32:00,
2013-05-09 06:37:00,56.5,55.4,29.91,WNW,290,0.0,0.0,96,0.00,,,0.01,16.00,VWS V14.01,2013-05-09 10:37:00,
2013-05-09 06:42:00,56.3,55.2,29.91,WNW,290,0.0,0.0,96,0.00,,,0.01,19.00,VWS V14.01,2013-05-09 10:42:00,
2013-05-09 06:47:00,56.3,55.2,29.93,WNW,290,0.0,0.0,96,0.00,,,0.01,28.00,VWS V14.01,2013-05-09 10:47:00,
2013-05-09 06:52:00,56.2,55.1,29.93,WNW,290,1.0,2.0,96,0.00,,,0.01,32.00,VWS V14.01,2013-05-09 10:52:00,
2013-05-09 06:57:00,55.9,54.8,29.93,WNW,290,0.0,0.0,96,0.00,,,0.01,32.00,VWS V14.01,2013-05-09 10:57:00,
2013-05-09 07:02:00,55.6,54.5,29.93,WNW,290,0.0,0.0,96,0.00,,,0.01,46.00,VWS V14.01,2013-05-09 11:02:00,
2013-05-09 07:07:00,55.4,54.3,29.93,WNW,290,0.0,0.0,96,0.00,,,0.01,40.00,VWS V14.01,2013-05-09 11:07:00,
2013-05-09 07:12:00,55.3,54.2,29.93,WNW,290,1.0,2.0,96,0.00,,,0.01,53.00,VWS V14.01,2013-05-09 11:12:00,
2013-05-09 07:17:00,55.3,54.2,29.94,WNW,290,0.0,0.0,96,0.00,,,0.01,54.00,VWS V14.01,2013-05-09 11:17:00,
2013-05-09 07:22:00,55.3,54.2,29.94,WNW,290,0.0,0.0,96,0.00,,,0.01,62.00,VWS V14.01,2013-05-09 11:22:00,
2013-05-09 07:27:00,55.4,54.3,29.94,WNW,290,0.0,0.0,96,0.00,,,0.01,69.00,VWS V14.01,2013-05-09 11:27:00,
2013-05-09 07:32:00,55.6,54.5,29.95,WNW,290,0.0,0.0,96,0.00,,,0.01,81.00,VWS V14.01,2013-05-09 11:32:00,
2013-05-09 07:37:00,55.7,54.6,29.95,WNW,290,0.0,0.0,96,0.00,,,0.01,90.00,VWS V14.01,2013-05-09 11:37:00,
2013-05-09 07:42:00,56.0,54.9,29.95,WNW,290,0.0,0.0,96,0.00,,,0.01,93.00,VWS V14.01,2013-05-09 11:42:00,
2013-05-09 07:47:00,56.2,55.1,29.96,WNW,290,0.0,0.0,96,0.00,,,0.01,120.00,VWS V14.01,2013-05-09 11:47:00,
2013-05-09 07:52:00,56.5,55.4,29.96,WNW,290,0.0,0.0,96,0.00,,,0.01,135.00,VWS V14.01,2013-05-09 11:52:00,
2013-05-09 07:57:00,56.6,55.5,29.96,WNW,290,0.0,0.0,96,0.00,,,0.01,141.00,VWS V14.01,2013-05-09 11:57:00,
2013-05-09 08:02:00,56.7,55.6,29.96,WNW,290,0.0,0.0,96,0.00,,,0.01,139.00,VWS V14.01,2013-05-09 12:02:00,
2013-05-09 08:07:00,57.2,56.1,29.96,WNW,290,0.0,0.0,96,0.00,,,0.01,148.00,VWS V14.01,2013-05-09 12:07:00,
2013-05-09 08:12:00,57.5,56.4,29.96,WNW,290,0.0,0.0,96,0.00,,,0.01,155.00,VWS V14.01,2013-05-09 12:12:00,
2013-05-09 08:17:00,57.8,57.0,29.96,WNW,290,0.0,0.0,97,0.00,,,0.01,169.00,VWS V14.01,2013-05-09 12:17:00,
2013-05-09 08:22:00,58.3,57.2,29.96,WNW,290,0.0,0.0,96,0.00,,,0.01,169.00,VWS V14.01,2013-05-09 12:22:00,
2013-05-09 08:27:00,58.4,57.3,29.96,WNW,290,0.0,0.0,96,0.00,,,0.01,188.00,VWS V14.01,2013-05-09 12:27:00,
2013-05-09 08:32:00,58.7,57.8,29.96,WNW,290,2.0,2.0,97,0.00,,,0.01,176.00,VWS V14.01,2013-05-09 12:32:00,
2013-05-09 08:37:00,58.9,58.0,29.96,WNW,290,1.0,3.0,97,0.00,,,0.01,202.00,VWS V14.01,2013-05-09 12:37:00,
2013-05-09 08:42:00,59.0,58.2,29.96,WNW,290,0.0,0.0,97,0.00,,,0.01,221.00,VWS V14.01,2013-05-09 12:42:00,
2013-05-09 08:47:00,59.2,58.3,29.96,WNW,290,0.0,0.0,97,0.00,,,0.01,211.00,VWS V14.01,2013-05-09 12:47:00,
2013-05-09 08:52:00,59.3,58.2,29.96,WNW,290,3.0,3.0,96,0.00,,,0.01,230.00,VWS V14.01,2013-05-09 12:52:00,
2013-05-09 08:57:00,59.6,58.8,29.96,North,349,0.0,0.0,97,0.00,,,0.01,265.00,VWS V14.01,2013-05-09 12:57:00,
2013-05-09 09:02:00,60.1,59.2,29.96,North,349,0.0,0.0,97,0.00,,,0.01,380.00,VWS V14.01,2013-05-09 13:02:00,
2013-05-09 09:07:00,60.5,59.7,29.96,North,349,0.0,0.0,97,0.00,,,0.01,364.00,VWS V14.01,2013-05-09 13:07:00,
2013-05-09 09:12:00,60.7,59.8,29.96,North,349,0.0,0.0,97,0.00,,,0.01,482.00,VWS V14.01,2013-05-09 13:12:00,
2013-05-09 09:17:00,61.5,60.6,29.96,North,349,0.0,0.0,97,0.00,,,0.01,541.00,VWS V14.01,2013-05-09 13:17:00,
2013-05-09 09:22:00,61.8,60.9,29.96,North,349,0.0,0.0,97,0.00,,,0.01,543.00,VWS V14.01,2013-05-09 13:22:00,
2013-05-09 09:27:00,62.1,61.2,29.96,North,349,0.0,0.0,97,0.00,,,0.01,571.00,VWS V14.01,2013-05-09 13:27:00,
2013-05-09 09:32:00,63.1,62.2,29.96,North,349,0.0,0.0,97,0.00,,,0.01,591.00,VWS V14.01,2013-05-09 13:32:00,
2013-05-09 09:37:00,63.9,63.0,29.96,North,349,0.0,0.0,97,0.00,,,0.01,605.00,VWS V14.01,2013-05-09 13:37:00,
2013-05-09 09:42:00,64.3,63.4,29.96,WNW,290,0.0,4.0,97,0.00,,,0.01,622.00,VWS V14.01,2013-05-09 13:42:00,
2013-05-09 09:47:00,64.7,63.5,29.96,WNW,293,4.0,5.0,96,0.00,,,0.01,635.00,VWS V14.01,2013-05-09 13:47:00,
2013-05-09 09:52:00,64.8,63.3,29.96,WNW,295,0.0,3.0,95,0.00,,,0.01,650.00,VWS V14.01,2013-05-09 13:52:00,
2013-05-09 09:57:00,65.6,63.5,29.96,WNW,297,0.0,0.0,93,0.00,,,0.01,666.00,VWS V14.01,2013-05-09 13:57:00,
2013-05-09 10:02:00,66.6,63.9,29.96,North,358,0.0,0.0,91,0.00,,,0.01,679.00,VWS V14.01,2013-05-09 14:02:00,
2013-05-09 10:07:00,67.4,62.7,29.96,West,271,3.0,4.0,85,0.00,,,0.01,696.00,VWS V14.01,2013-05-09 14:07:00,
2013-05-09 10:12:00,67.3,60.9,29.96,WNW,298,0.0,0.0,80,0.00,,,0.01,707.00,VWS V14.01,2013-05-09 14:12:00,
2013-05-09 10:17:00,67.9,60.4,29.97,West,267,0.0,1.0,77,0.00,,,0.01,714.00,VWS V14.01,2013-05-09 14:17:00,
2013-05-09 10:22:00,68.4,59.8,29.97,WSW,241,0.0,0.0,74,0.00,,,0.01,735.00,VWS V14.01,2013-05-09 14:22:00,
2013-05-09 10:27:00,68.8,59.4,29.97,North,358,0.0,4.0,72,0.00,,,0.01,740.00,VWS V14.01,2013-05-09 14:27:00,
2013-05-09 10:32:00,69.4,60.0,29.97,North,358,0.0,0.0,72,0.00,,,0.01,758.00,VWS V14.01,2013-05-09 14:32:00,
2013-05-09 10:37:00,69.6,59.0,29.97,WNW,302,1.0,1.0,69,0.00,,,0.01,770.00,VWS V14.01,2013-05-09 14:37:00,
2013-05-09 10:42:00,70.1,58.7,29.97,WSW,256,6.0,6.0,67,0.00,,,0.01,784.00,VWS V14.01,2013-05-09 14:42:00,
2013-05-09 10:47:00,70.3,58.0,29.97,West,267,0.0,0.0,65,0.00,,,0.01,795.00,VWS V14.01,2013-05-09 14:47:00,
2013-05-09 10:52:00,70.6,58.7,29.97,North,349,0.0,3.0,66,0.00,,,0.01,805.00,VWS V14.01,2013-05-09 14:52:00,
2013-05-09 10:57:00,70.9,57.2,29.97,NNW,342,0.0,0.0,62,0.00,,,0.01,814.00,VWS V14.01,2013-05-09 14:57:00,
2013-05-09 11:02:00,71.8,57.6,29.97,West,263,4.0,7.0,61,0.00,,,0.01,824.00,VWS V14.01,2013-05-09 15:02:00,
2013-05-09 11:07:00,72.5,56.9,29.97,West,273,5.0,7.0,58,0.00,,,0.01,837.00,VWS V14.01,2013-05-09 15:07:00,
2013-05-09 11:12:00,73.0,57.4,29.97,West,266,5.0,6.0,58,0.00,,,0.01,849.00,VWS V14.01,2013-05-09 15:12:00,
2013-05-09 11:17:00,73.2,56.6,29.97,WNW,302,0.0,2.0,56,0.00,,,0.01,854.00,VWS V14.01,2013-05-09 15:17:00,
2013-05-09 11:22:00,73.5,57.8,29.97,West,262,0.0,0.0,58,0.00,,,0.01,867.00,VWS V14.01,2013-05-09 15:22:00,
2013-05-09 11:27:00,74.0,56.8,29.97,WNW,290,0.0,0.0,55,0.00,,,0.01,877.00,VWS V14.01,2013-05-09 15:27:00,
2013-05-09 11:32:00,74.4,57.2,29.97,WNW,296,3.0,5.0,55,0.00,,,0.01,886.00,VWS V14.01,2013-05-09 15:32:00,
2013-05-09 11:37:00,74.4,56.2,29.97,WNW,295,4.0,7.0,53,0.00,,,0.01,896.00,VWS V14.01,2013-05-09 15:37:00,
2013-05-09 11:42:00,74.6,55.8,29.97,West,269,7.0,8.0,52,0.00,,,0.01,902.00,VWS V14.01,2013-05-09 15:42:00,
2013-05-09 11:47:00,74.7,57.5,29.97,NNW,346,0.0,4.0,55,0.00,,,0.01,909.00,VWS V14.01,2013-05-09 15:47:00,
2013-05-09 11:52:00,74.7,55.4,29.97,WNW,286,0.0,0.0,51,0.00,,,0.01,914.00,VWS V14.01,2013-05-09 15:52:00,
2013-05-09 11:57:00,75.1,55.8,29.97,WNW,300,0.0,2.0,51,0.00,,,0.01,923.00,VWS V14.01,2013-05-09 15:57:00,
2013-05-09 12:02:00,75.3,55.4,29.97,NW,309,6.0,7.0,50,0.00,,,0.01,930.00,VWS V14.01,2013-05-09 16:02:00,
2013-05-09 12:07:00,75.6,55.7,29.97,West,264,1.0,5.0,50,0.00,,,0.01,928.00,VWS V14.01,2013-05-09 16:07:00,
2013-05-09 12:12:00,76.0,55.5,29.97,West,276,0.0,5.0,49,0.00,,,0.01,937.00,VWS V14.01,2013-05-09 16:12:00,
2013-05-09 12:17:00,76.3,54.6,29.96,NNE,17,0.0,0.0,47,0.00,,,0.01,937.00,VWS V14.01,2013-05-09 16:17:00,
2013-05-09 12:22:00,76.7,55.5,29.96,WNW,294,0.0,7.0,48,0.00,,,0.01,958.00,VWS V14.01,2013-05-09 16:22:00,
2013-05-09 12:27:00,76.7,56.1,29.96,West,281,0.0,6.0,49,0.00,,,0.01,960.00,VWS V14.01,2013-05-09 16:27:00,
2013-05-09 12:32:00,76.8,55.1,29.96,WNW,302,4.0,6.0,47,0.00,,,0.01,986.00,VWS V14.01,2013-05-09 16:32:00,
2013-05-09 12:37:00,76.5,55.4,29.96,NW,312,3.0,4.0,48,0.00,,,0.01,833.00,VWS V14.01,2013-05-09 16:37:00,
2013-05-09 12:42:00,76.7,56.7,29.96,WSW,255,10.0,11.0,50,0.00,,,0.01,977.00,VWS V14.01,2013-05-09 16:42:00,
2013-05-09 12:47:00,76.8,54.5,29.96,North,352,0.0,0.0,46,0.00,,,0.01,965.00,VWS V14.01,2013-05-09 16:47:00,
2013-05-09 12:52:00,77.0,55.2,29.96,West,277,3.0,6.0,47,0.00,,,0.01,1069.00,VWS V14.01,2013-05-09 16:52:00,
2013-05-09 12:57:00,77.2,55.4,29.96,NNW,330,9.0,13.0,47,0.00,,,0.01,979.00,VWS V14.01,2013-05-09 16:57:00,
2013-05-09 13:02:00,77.0,52.8,29.96,West,271,0.0,0.0,43,0.00,,,0.01,962.00,VWS V14.01,2013-05-09 17:02:00,
2013-05-09 13:07:00,77.2,55.4,29.96,West,275,3.0,8.0,47,0.00,,,0.01,972.00,VWS V14.01,2013-05-09 17:07:00,
2013-05-09 13:12:00,77.6,54.0,29.96,NW,316,4.0,4.0,44,0.00,,,0.01,970.00,VWS V14.01,2013-05-09 17:12:00,
2013-05-09 13:17:00,78.1,54.4,29.95,West,262,3.0,4.0,44,0.00,,,0.01,976.00,VWS V14.01,2013-05-09 17:17:00,
2013-05-09 13:22:00,78.5,54.2,29.95,WSW,241,2.0,7.0,43,0.00,,,0.01,965.00,VWS V14.01,2013-05-09 17:22:00,
2013-05-09 13:27:00,78.8,55.7,29.95,West,276,0.0,10.0,45,0.00,,,0.01,969.00,VWS V14.01,2013-05-09 17:27:00,
2013-05-09 13:32:00,79.0,54.6,29.95,WNW,284,4.0,5.0,43,0.00,,,0.01,970.00,VWS V14.01,2013-05-09 17:32:00,
2013-05-09 13:37:00,79.0,55.2,29.95,NNW,330,5.0,6.0,44,0.00,,,0.01,962.00,VWS V14.01,2013-05-09 17:37:00,
2013-05-09 13:42:00,79.0,53.3,29.95,West,274,6.0,8.0,41,0.00,,,0.01,972.00,VWS V14.01,2013-05-09 17:42:00,
2013-05-09 13:47:00,78.8,53.1,29.94,NW,311,6.0,6.0,41,0.00,,,0.01,977.00,VWS V14.01,2013-05-09 17:47:00,
2013-05-09 13:52:00,79.0,53.3,29.94,WNW,295,0.0,6.0,41,0.00,,,0.01,1009.00,VWS V14.01,2013-05-09 17:52:00,
2013-05-09 13:57:00,79.4,54.3,29.94,NNW,348,2.0,6.0,42,0.00,,,0.01,976.00,VWS V14.01,2013-05-09 17:57:00,
2013-05-09 14:02:00,79.6,53.2,29.94,NW,310,5.0,5.0,40,0.00,,,0.01,972.00,VWS V14.01,2013-05-09 18:02:00,
2013-05-09 14:07:00,79.9,52.8,29.94,West,267,0.0,0.0,39,0.00,,,0.01,951.00,VWS V14.01,2013-05-09 18:07:00,
2013-05-09 14:12:00,80.3,53.8,29.94,West,263,3.0,3.0,40,0.00,,,0.01,984.00,VWS V14.01,2013-05-09 18:12:00,
2013-05-09 14:17:00,80.5,54.7,29.94,West,265,0.0,4.0,41,0.00,,,0.01,944.00,VWS V14.01,2013-05-09 18:17:00,
2013-05-09 14:22:00,80.7,54.8,29.94,NNW,347,6.0,6.0,41,0.00,,,0.01,875.00,VWS V14.01,2013-05-09 18:22:00,
2013-05-09 14:27:00,80.5,54.0,29.94,North,0,10.0,10.0,40,0.00,,,0.01,960.00,VWS V14.01,2013-05-09 18:27:00,
2013-05-09 14:32:00,80.3,54.5,29.94,North,353,0.0,2.0,41,0.00,,,0.01,972.00,VWS V14.01,2013-05-09 18:32:00,
2013-05-09 14:37:00,80.5,55.3,29.94,North,2,0.0,0.0,42,0.00,,,0.01,998.00,VWS V14.01,2013-05-09 18:37:00,
2013-05-09 14:42:00,80.7,53.5,29.94,WSW,247,4.0,10.0,39,0.00,,,0.01,197.00,VWS V14.01,2013-05-09 18:42:00,
2013-05-09 14:47:00,80.5,54.0,29.93,SW,233,5.0,5.0,40,0.00,,,0.01,997.00,VWS V14.01,2013-05-09 18:47:00,
2013-05-09 14:52:00,80.7,53.5,29.93,NW,304,4.0,4.0,39,0.00,,,0.01,977.00,VWS V14.01,2013-05-09 18:52:00,
2013-05-09 14:57:00,81.1,53.1,29.93,NW,306,6.0,6.0,38,0.00,,,0.01,186.00,VWS V14.01,2013-05-09 18:57:00,
2013-05-09 15:02:00,81.4,56.1,29.93,NW,315,6.0,6.0,42,0.00,,,0.01,956.00,VWS V14.01,2013-05-09 19:02:00,
2013-05-09 15:07:00,82.0,55.3,29.93,NNW,342,1.0,3.0,40,0.00,,,0.01,886.00,VWS V14.01,2013-05-09 19:07:00,
2013-05-09 15:12:00,82.6,53.7,29.93,NNW,342,5.0,9.0,37,0.00,,,0.01,884.00,VWS V14.01,2013-05-09 19:12:00,
2013-05-09 15:17:00,82.6,53.0,29.93,SSW,210,0.0,0.0,36,0.00,,,0.01,840.00,VWS V14.01,2013-05-09 19:17:00,
2013-05-09 15:22:00,82.4,54.3,29.93,South,183,2.0,5.0,38,0.00,,,0.01,904.00,VWS V14.01,2013-05-09 19:22:00,
2013-05-09 15:27:00,82.6,54.5,29.93,SW,226,6.0,9.0,38,0.00,,,0.01,860.00,VWS V14.01,2013-05-09 19:27:00,
2013-05-09 15:32:00,82.8,53.9,29.92,North,0,0.0,0.0,37,0.00,,,0.01,928.00,VWS V14.01,2013-05-09 19:32:00,
2013-05-09 15:37:00,82.6,53.0,29.92,North,352,6.0,7.0,36,0.00,,,0.01,264.00,VWS V14.01,2013-05-09 19:37:00,
2013-05-09 15:42:00,82.4,56.4,29.92,WNW,300,0.0,4.0,41,0.00,,,0.01,835.00,VWS V14.01,2013-05-09 19:42:00,
2013-05-09 15:47:00,82.4,52.0,29.92,WNW,292,0.0,5.0,35,0.00,,,0.01,840.00,VWS V14.01,2013-05-09 19:47:00,
2013-05-09 15:52:00,82.4,54.3,29.92,West,275,6.0,6.0,38,0.00,,,0.01,199.00,VWS V14.01,2013-05-09 19:52:00,
2013-05-09 15:57:00,82.0,53.2,29.92,North,6,0.0,5.0,37,0.00,,,0.01,200.00,VWS V14.01,2013-05-09 19:57:00,
2013-05-09 16:02:00,81.6,54.3,29.92,NE,34,0.0,4.0,39,0.00,,,0.01,835.00,VWS V14.01,2013-05-09 20:02:00,
2013-05-09 16:07:00,82.0,53.9,29.92,WSW,250,2.0,6.0,38,0.00,,,0.01,775.00,VWS V14.01,2013-05-09 20:07:00,
2013-05-09 16:12:00,82.0,53.2,29.92,WNW,282,0.0,2.0,37,0.00,,,0.01,160.00,VWS V14.01,2013-05-09 20:12:00,
2013-05-09 16:17:00,81.4,52.7,29.92,West,281,0.0,0.0,37,0.00,,,0.01,165.00,VWS V14.01,2013-05-09 20:17:00,
2013-05-09 16:22:00,81.2,53.9,29.92,West,281,0.0,0.0,39,0.00,,,0.01,172.00,VWS V14.01,2013-05-09 20:22:00,
2013-05-09 16:27:00,81.1,53.8,29.92,West,281,4.0,4.0,39,0.00,,,0.01,151.00,VWS V14.01,2013-05-09 20:27:00,
2013-05-09 16:32:00,80.9,53.7,29.92,West,278,2.0,4.0,39,0.00,,,0.01,700.00,VWS V14.01,2013-05-09 20:32:00,
2013-05-09 16:37:00,81.4,53.4,29.92,WNW,287,1.0,3.0,38,0.00,,,0.01,645.00,VWS V14.01,2013-05-09 20:37:00,
2013-05-09 16:42:00,82.4,54.3,29.92,North,0,3.0,6.0,38,0.00,,,0.01,633.00,VWS V14.01,2013-05-09 20:42:00,
2013-05-09 16:47:00,82.8,54.6,29.92,North,358,6.0,6.0,38,0.00,,,0.01,445.00,VWS V14.01,2013-05-09 20:47:00,
2013-05-09 16:52:00,82.6,54.5,29.92,West,281,0.0,0.0,38,0.00,,,0.01,229.00,VWS V14.01,2013-05-09 20:52:00,
2013-05-09 16:57:00,82.4,55.0,29.92,North,0,2.0,5.0,39,0.00,,,0.01,406.00,VWS V14.01,2013-05-09 20:57:00,
2013-05-09 17:02:00,82.0,53.9,29.92,NNW,337,7.0,7.0,38,0.00,,,0.01,378.00,VWS V14.01,2013-05-09 21:02:00,
2013-05-09 17:07:00,81.8,54.5,29.92,NNW,345,2.0,3.0,39,0.00,,,0.01,446.00,VWS V14.01,2013-05-09 21:07:00,
2013-05-09 17:12:00,82.0,54.6,29.92,WNW,283,6.0,7.0,39,0.00,,,0.01,482.00,VWS V14.01,2013-05-09 21:12:00,
2013-05-09 17:17:00,82.2,54.8,29.92,West,280,0.0,0.0,39,0.00,,,0.01,577.00,VWS V14.01,2013-05-09 21:17:00,
2013-05-09 17:22:00,82.8,55.3,29.92,North,357,0.0,0.0,39,0.00,,,0.01,536.00,VWS V14.01,2013-05-09 21:22:00,
2013-05-09 17:27:00,83.2,54.2,29.92,North,358,0.0,0.0,37,0.00,,,0.01,483.00,VWS V14.01,2013-05-09 21:27:00,
2013-05-09 17:32:00,83.4,52.9,29.92,NNW,336,0.0,0.0,35,0.00,,,0.01,492.00,VWS V14.01,2013-05-09 21:32:00,
2013-05-09 17:37:00,84.0,53.4,29.92,NNW,336,0.0,0.0,35,0.00,,,0.01,526.00,VWS V14.01,2013-05-09 21:37:00,
2013-05-09 17:42:00,84.5,54.6,29.92,North,1,2.0,5.0,36,0.00,,,0.01,504.00,VWS V14.01,2013-05-09 21:42:00,
2013-05-09 17:47:00,84.3,53.7,29.92,North,0,0.0,3.0,35,0.00,,,0.01,452.00,VWS V14.01,2013-05-09 21:47:00,
2013-05-09 17:52:00,84.1,53.5,29.92,NNE,31,1.0,3.0,35,0.00,,,0.01,464.00,VWS V14.01,2013-05-09 21:52:00,
2013-05-09 17:57:00,83.4,54.4,29.92,NNE,31,3.0,4.0,37,0.00,,,0.01,422.00,VWS V14.01,2013-05-09 21:57:00,
2013-05-09 18:02:00,83.4,54.4,29.92,North,358,2.0,4.0,37,0.00,,,0.01,392.00,VWS V14.01,2013-05-09 22:02:00,
2013-05-09 18:07:00,83.4,53.7,29.92,North,358,1.0,3.0,36,0.00,,,0.01,348.00,VWS V14.01,2013-05-09 22:07:00,
2013-05-09 18:12:00,83.8,54.0,29.92,West,278,0.0,0.0,36,0.00,,,0.01,350.00,VWS V14.01,2013-05-09 22:12:00,
2013-05-09 18:17:00,84.0,51.8,29.92,West,262,6.0,6.0,33,0.00,,,0.01,311.00,VWS V14.01,2013-05-09 22:17:00,
2013-05-09 18:22:00,83.4,52.1,29.92,WSW,245,0.0,3.0,34,0.00,,,0.01,287.00,VWS V14.01,2013-05-09 22:22:00,
2013-05-09 18:27:00,83.2,52.7,29.92,West,280,0.0,0.0,35,0.00,,,0.01,290.00,VWS V14.01,2013-05-09 22:27:00,
2013-05-09 18:32:00,82.6,52.2,29.91,WSW,257,0.0,2.0,35,0.00,,,0.01,227.00,VWS V14.01,2013-05-09 22:32:00,
2013-05-09 18:37:00,82.4,53.5,29.91,WNW,283,0.0,0.0,37,0.00,,,0.01,65.00,VWS V14.01,2013-05-09 22:37:00,
2013-05-09 18:42:00,81.8,53.7,29.91,WNW,303,1.0,1.0,38,0.00,,,0.01,62.00,VWS V14.01,2013-05-09 22:42:00,
2013-05-09 18:47:00,81.1,53.8,29.92,WNW,303,0.0,0.0,39,0.00,,,0.01,62.00,VWS V14.01,2013-05-09 22:47:00,
2013-05-09 18:52:00,80.3,55.8,29.92,WNW,303,0.0,0.0,43,0.00,,,0.01,88.00,VWS V14.01,2013-05-09 22:52:00,
2013-05-09 18:57:00,79.9,56.7,29.92,WNW,303,0.0,0.0,45,0.00,,,0.01,84.00,VWS V14.01,2013-05-09 22:57:00,
2013-05-09 19:02:00,79.6,56.4,29.91,WNW,303,0.0,0.0,45,0.00,,,0.01,77.00,VWS V14.01,2013-05-09 23:02:00,
2013-05-09 19:07:00,79.2,57.2,29.91,WNW,303,0.0,0.0,47,0.00,,,0.01,54.00,VWS V14.01,2013-05-09 23:07:00,
2013-05-09 19:12:00,78.8,56.9,29.91,WNW,303,0.0,0.0,47,0.00,,,0.01,51.00,VWS V14.01,2013-05-09 23:12:00,
2013-05-09 19:17:00,78.3,55.8,29.92,WNW,302,0.0,0.0,46,0.00,,,0.01,46.00,VWS V14.01,2013-05-09 23:17:00,
2013-05-09 19:22:00,78.1,56.8,29.92,WNW,302,0.0,0.0,48,0.00,,,0.01,33.00,VWS V14.01,2013-05-09 23:22:00,
2013-05-09 19:27:00,77.7,57.0,29.92,WNW,302,0.0,0.0,49,0.00,,,0.01,30.00,VWS V14.01,2013-05-09 23:27:00,
2013-05-09 19:32:00,77.2,57.1,29.92,WNW,302,0.0,0.0,50,0.00,,,0.01,21.00,VWS V14.01,2013-05-09 23:32:00,
2013-05-09 19:37:00,76.5,57.0,29.92,WNW,302,0.0,0.0,51,0.00,,,0.01,23.00,VWS V14.01,2013-05-09 23:37:00,
2013-05-09 19:42:00,75.8,56.4,29.92,WNW,302,0.0,0.0,51,0.00,,,0.01,19.00,VWS V14.01,2013-05-09 23:42:00,
2013-05-09 19:47:00,75.3,57.0,29.93,WNW,302,0.0,0.0,53,0.00,,,0.01,18.00,VWS V14.01,2013-05-09 23:47:00,
2013-05-09 19:52:00,74.7,57.5,29.93,WNW,302,0.0,0.0,55,0.00,,,0.01,12.00,VWS V14.01,2013-05-09 23:52:00,
2013-05-09 19:57:00,74.0,57.3,29.93,WNW,302,0.0,0.0,56,0.00,,,0.01,9.00,VWS V14.01,2013-05-09 23:57:00,
2013-05-09 20:02:00,73.5,57.8,29.93,WNW,302,0.0,0.0,58,0.00,,,0.01,5.00,VWS V14.01,2013-05-10 00:02:00,
2013-05-09 20:07:00,73.0,57.8,29.93,WNW,302,0.0,0.0,59,0.00,,,0.01,0.00,VWS V14.01,2013-05-10 00:07:00,
2013-05-09 20:12:00,72.3,58.1,29.93,WNW,302,0.0,0.0,61,0.00,,,0.01,0.00,VWS V14.01,2013-05-10 00:12:00,
2013-05-09 20:17:00,71.8,57.6,29.94,WNW,302,0.0,0.0,61,0.00,,,0.01,0.00,VWS V14.01,2013-05-10 00:17:00,
2013-05-09 20:22:00,71.3,58.5,29.94,WNW,302,0.0,0.0,64,0.00,,,0.01,0.00,VWS V14.01,2013-05-10 00:22:00,
2013-05-09 20:27:00,70.8,58.0,29.94,WNW,302,0.0,0.0,64,0.00,,,0.01,0.00,VWS V14.01,2013-05-10 00:27:00,
2013-05-09 20:32:00,70.3,58.0,29.94,WNW,302,0.0,0.0,65,0.00,,,0.01,0.00,VWS V14.01,2013-05-10 00:32:00,
2013-05-09 20:37:00,69.9,58.5,29.94,WNW,302,0.0,0.0,67,0.00,,,0.01,0.00,VWS V14.01,2013-05-10 00:37:00,
2013-05-09 20:42:00,69.4,59.6,29.94,WNW,302,0.0,0.0,71,0.00,,,0.01,0.00,VWS V14.01,2013-05-10 00:42:00,
2013-05-09 20:47:00,69.1,59.7,29.95,WNW,302,0.0,0.0,72,0.00,,,0.01,0.00,VWS V14.01,2013-05-10 00:47:00,
2013-05-09 20:52:00,68.8,59.4,29.95,WNW,302,0.0,0.0,72,0.00,,,0.01,0.00,VWS V14.01,2013-05-10 00:52:00,
2013-05-09 20:57:00,68.4,60.2,29.95,WNW,302,0.0,0.0,75,0.00,,,0.01,0.00,VWS V14.01,2013-05-10 00:57:00,
2013-05-09 21:02:00,68.1,60.3,29.96,WNW,302,0.0,0.0,76,0.00,,,0.01,0.00,VWS V14.01,2013-05-10 01:02:00,
2013-05-09 21:07:00,67.8,60.3,29.96,WNW,302,0.0,0.0,77,0.00,,,0.01,0.00,VWS V14.01,2013-05-10 01:07:00,
2013-05-09 21:12:00,67.4,60.7,29.96,WNW,302,0.0,0.0,79,0.00,,,0.01,0.00,VWS V14.01,2013-05-10 01:12:00,
2013-05-09 21:17:00,67.1,60.0,29.96,WNW,302,0.0,0.0,78,0.00,,,0.01,0.00,VWS V14.01,2013-05-10 01:17:00,
2013-05-09 21:22:00,66.8,60.4,29.96,WNW,302,0.0,0.0,80,0.00,,,0.01,0.00,VWS V14.01,2013-05-10 01:22:00,
2013-05-09 21:27:00,66.4,60.0,29.96,WNW,302,0.0,0.0,80,0.00,,,0.01,0.00,VWS V14.01,2013-05-10 01:27:00,
2013-05-09 21:32:00,66.3,60.7,29.97,WNW,302,0.0,0.0,82,0.00,,,0.01,0.00,VWS V14.01,2013-05-10 01:32:00,
2013-05-09 21:37:00,66.0,60.7,29.97,WNW,302,0.0,0.0,83,0.00,,,0.01,0.00,VWS V14.01,2013-05-10 01:37:00,
2013-05-09 21:42:00,65.6,60.3,29.97,WNW,302,0.0,0.0,83,0.00,,,0.01,0.00,VWS V14.01,2013-05-10 01:42:00,
2013-05-09 21:47:00,65.5,60.2,29.97,WNW,302,0.0,0.0,83,0.00,,,0.01,0.00,VWS V14.01,2013-05-10 01:47:00,
2013-05-09 21:52:00,65.2,59.9,29.97,WNW,302,0.0,0.0,83,0.00,,,0.01,0.00,VWS V14.01,2013-05-10 01:52:00,
2013-05-09 21:57:00,64.8,59.2,29.97,WNW,302,0.0,0.0,82,0.00,,,0.01,0.00,VWS V14.01,2013-05-10 01:57:00,
2013-05-09 22:02:00,64.5,59.2,29.98,WNW,302,0.0,0.0,83,0.00,,,0.01,0.00,VWS V14.01,2013-05-10 02:02:00,
2013-05-09 22:07:00,64.3,59.4,29.98,WNW,302,0.0,0.0,84,0.00,,,0.01,0.00,VWS V14.01,2013-05-10 02:07:00,
2013-05-09 22:12:00,64.0,59.4,29.98,WNW,302,0.0,0.0,85,0.00,,,0.01,0.00,VWS V14.01,2013-05-10 02:12:00,
2013-05-09 22:17:00,63.9,59.6,29.98,WNW,302,0.0,0.0,86,0.00,,,0.01,0.00,VWS V14.01,2013-05-10 02:17:00,
2013-05-09 22:22:00,63.9,59.6,29.98,WNW,302,0.0,0.0,86,0.00,,,0.01,0.00,VWS V14.01,2013-05-10 02:22:00,
2013-05-09 22:27:00,63.5,59.6,29.98,WNW,302,0.0,0.0,87,0.00,,,0.01,0.00,VWS V14.01,2013-05-10 02:27:00,
2013-05-09 22:32:00,63.4,59.5,29.97,WNW,302,0.0,0.0,87,0.00,,,0.01,0.00,VWS V14.01,2013-05-10 02:32:00,
2013-05-09 22:37:00,63.2,59.3,29.97,WNW,302,0.0,0.0,87,0.00,,,0.01,0.00,VWS V14.01,2013-05-10 02:37:00,
2013-05-09 22:42:00,62.9,59.0,29.97,WNW,302,0.0,0.0,87,0.00,,,0.01,0.00,VWS V14.01,2013-05-10 02:42:00,
2013-05-09 22:47:00,62.7,58.8,29.98,WNW,302,0.0,0.0,87,0.00,,,0.01,0.00,VWS V14.01,2013-05-10 02:47:00,
2013-05-09 22:52:00,62.4,58.8,29.98,WNW,302,0.0,0.0,88,0.00,,,0.01,0.00,VWS V14.01,2013-05-10 02:52:00,
2013-05-09 22:57:00,62.3,58.7,29.98,WNW,302,0.0,0.0,88,0.00,,,0.01,0.00,VWS V14.01,2013-05-10 02:57:00,
2013-05-09 23:02:00,62.1,58.5,29.97,WNW,302,0.0,0.0,88,0.00,,,0.01,0.00,VWS V14.01,2013-05-10 03:02:00,
2013-05-09 23:07:00,62.0,58.4,29.97,WNW,302,0.0,0.0,88,0.00,,,0.01,0.00,VWS V14.01,2013-05-10 03:07:00,
2013-05-09 23:12:00,61.8,58.5,29.97,WNW,302,0.0,0.0,89,0.00,,,0.01,0.00,VWS V14.01,2013-05-10 03:12:00,
2013-05-09 23:17:00,61.6,58.3,29.97,WNW,302,0.0,0.0,89,0.00,,,0.01,0.00,VWS V14.01,2013-05-10 03:17:00,
2013-05-09 23:22:00,61.5,58.2,29.97,WNW,302,0.0,0.0,89,0.00,,,0.01,0.00,VWS V14.01,2013-05-10 03:22:00,